Starlink 3369

operational
NORAD ID: 51142 Int'l Des: 2022-005 Owner: SPXS Country: US Constellation: starlink
LEOCIRCULAR

关于 Starlink 3369

正在加载描述...

实时位置

正在加载3D地球...

即将过境

高度历史

Altitude vs Time

uPlot chart will show altitude changes over time

两行轨道根数

1 51142U 22005AQ 26062.08810575 .00037113 00000-0 17856-2 0 9996
2 51142 53.2116 311.9448 0003878 151.9600 208.1606 15.18455364227973
Epoch: Mar 3, 2026 • Age: 27 hours

当前状态

高度 521.8 km
速度 7.60 km/s
星下点 -29.35°S, 72.19°E
发射日期 Jan 19, 2022
运行时间 4.1 years
类型 internet

技术详情

分类 Payload
质量 297.00 kg
干质量 275.00 kg
总质量 297.00 kg
长度 0.20 m
直径 2.80 m
跨度 9.00 m
形状 Box + pan
制造商 SPXS
平台类型 Starlink
阶段状态 In Orbit
所有者/国家 SPXS/US

大型星座

Loading constellations...